N124TL KPGA-UT25

Flight info

Callsign N124TL
Flight time 0h 40m
Altitude 7500
Route VFR EAST
Aircraft BE58/L-VGD/C

Departure

Time 2026-04-21 02:26
Airport Page Municipal Airport (KPGA)

Arrival

Time 2026-04-21 03:07
Airport Monument Valley Airport (UT25)
Time Latitude Longitude Altitude Speed Heading
2026-04-21 02:19 36.92738 -111.45180 4257 ft 0 kts 261°
2026-04-21 02:24 36.92717 -111.45205 4257 ft 12 kts 163°
2026-04-21 02:24 36.92619 -111.45136 4261 ft 17 kts 107°
2026-04-21 02:25 36.92591 -111.44989 4261 ft 18 kts 105°
2026-04-21 02:25 36.92510 -111.44894 4263 ft 22 kts 170°
2026-04-21 02:25 36.92324 -111.44853 4271 ft 19 kts 169°
2026-04-21 02:25 36.92290 -111.44813 4272 ft 5 kts 37°
2026-04-21 02:26 36.92366 -111.44756 4269 ft 38 kts 350°
2026-04-21 02:26 36.92891 -111.44865 4321 ft 98 kts 353°
2026-04-21 02:26 36.93633 -111.44988 4634 ft 114 kts 355°
2026-04-21 02:26 36.94452 -111.45145 4955 ft 124 kts 352°
2026-04-21 02:27 36.95319 -111.45073 5272 ft 130 kts 26°
2026-04-21 02:27 36.95932 -111.44257 5599 ft 133 kts 65°
2026-04-21 02:27 36.96076 -111.43141 5929 ft 134 kts 104°
2026-04-21 02:27 36.95719 -111.42071 6278 ft 134 kts 117°
2026-04-21 02:28 36.95306 -111.41042 6672 ft 130 kts 118°
2026-04-21 02:28 36.94919 -111.40069 7138 ft 121 kts 118°
2026-04-21 02:28 36.94563 -111.39156 7562 ft 117 kts 118°
2026-04-21 02:28 36.94146 -111.38087 7459 ft 154 kts 117°
2026-04-21 02:29 36.93639 -111.36805 7432 ft 170 kts 117°
2026-04-21 02:29 36.93103 -111.35464 7429 ft 172 kts 117°
2026-04-21 02:29 36.92839 -111.34011 7434 ft 175 kts 91°
2026-04-21 02:29 36.92910 -111.32480 7429 ft 176 kts 87°
2026-04-21 02:30 36.93012 -111.30949 7430 ft 177 kts 86°
2026-04-21 02:30 36.93124 -111.29421 7438 ft 176 kts 86°
2026-04-21 02:30 36.93243 -111.27890 7445 ft 176 kts 86°
2026-04-21 02:30 36.93366 -111.26343 7450 ft 177 kts 86°
2026-04-21 02:31 36.93488 -111.24823 7454 ft 177 kts 86°
2026-04-21 02:31 36.93613 -111.23285 7458 ft 177 kts 86°
2026-04-21 02:31 36.93738 -111.21744 7460 ft 177 kts 86°
2026-04-21 02:31 36.93864 -111.20204 7459 ft 178 kts 86°
2026-04-21 02:32 36.93991 -111.18659 7454 ft 178 kts 86°
2026-04-21 02:32 36.94116 -111.17130 7457 ft 179 kts 86°
2026-04-21 02:32 36.94244 -111.15561 7458 ft 179 kts 86°
2026-04-21 02:32 36.94371 -111.14011 7463 ft 179 kts 86°
2026-04-21 02:33 36.94498 -111.12450 7467 ft 180 kts 86°
2026-04-21 02:33 36.94624 -111.10911 7466 ft 180 kts 87°
2026-04-21 02:33 36.94751 -111.09346 7470 ft 180 kts 86°
2026-04-21 02:33 36.94878 -111.07793 7476 ft 180 kts 87°
2026-04-21 02:34 36.95005 -111.06226 7504 ft 180 kts 87°
2026-04-21 02:34 36.95131 -111.04658 7506 ft 181 kts 87°
2026-04-21 02:34 36.95259 -111.03078 7496 ft 181 kts 87°
2026-04-21 02:34 36.95385 -111.01514 7489 ft 180 kts 86°
2026-04-21 02:35 36.95511 -110.99952 7492 ft 179 kts 87°
2026-04-21 02:35 36.95636 -110.98400 7503 ft 179 kts 86°
2026-04-21 02:35 36.95760 -110.96854 7504 ft 179 kts 86°
2026-04-21 02:35 36.95884 -110.95295 7505 ft 179 kts 86°
2026-04-21 02:36 36.96009 -110.93746 7509 ft 180 kts 87°
2026-04-21 02:36 36.96135 -110.92172 7509 ft 180 kts 87°
2026-04-21 02:36 36.96257 -110.90632 7514 ft 180 kts 86°
2026-04-21 02:36 36.96382 -110.89058 7513 ft 179 kts 87°
2026-04-21 02:37 36.96507 -110.87505 7515 ft 179 kts 87°
2026-04-21 02:37 36.96629 -110.85957 7519 ft 178 kts 86°
2026-04-21 02:37 36.96752 -110.84415 7525 ft 178 kts 86°
2026-04-21 02:37 36.96874 -110.82875 7529 ft 178 kts 87°
2026-04-21 02:38 36.96995 -110.81337 7530 ft 178 kts 87°
2026-04-21 02:38 36.97116 -110.79796 7530 ft 177 kts 87°
2026-04-21 02:38 36.97236 -110.78261 7527 ft 177 kts 87°
2026-04-21 02:38 36.97356 -110.76726 7531 ft 177 kts 86°
2026-04-21 02:39 36.97477 -110.75185 7535 ft 178 kts 87°
2026-04-21 02:39 36.97598 -110.73637 7532 ft 178 kts 86°
2026-04-21 02:39 36.97719 -110.72092 7536 ft 178 kts 87°
2026-04-21 02:39 36.97840 -110.70542 7520 ft 177 kts 86°
2026-04-21 02:40 36.97960 -110.69008 7528 ft 177 kts 86°
2026-04-21 02:40 36.98079 -110.67480 7522 ft 177 kts 87°
2026-04-21 02:40 36.98199 -110.65933 7527 ft 176 kts 86°
2026-04-21 02:40 36.98317 -110.64409 7521 ft 176 kts 86°
2026-04-21 02:41 36.98435 -110.62889 7524 ft 175 kts 86°
2026-04-21 02:41 36.98552 -110.61373 7524 ft 175 kts 87°
2026-04-21 02:41 36.98669 -110.59857 7521 ft 174 kts 86°
2026-04-21 02:41 36.98785 -110.58350 7519 ft 173 kts 86°
2026-04-21 02:42 36.98900 -110.56852 7518 ft 172 kts 87°
2026-04-21 02:42 36.99015 -110.55360 7520 ft 171 kts 86°
2026-04-21 02:42 36.99128 -110.53876 7523 ft 172 kts 88°
2026-04-21 02:42 36.99234 -110.52370 7517 ft 172 kts 91°
2026-04-21 02:43 36.98804 -110.51051 7526 ft 167 kts 133°
2026-04-21 02:43 36.97951 -110.50053 7528 ft 167 kts 139°
2026-04-21 02:43 36.97053 -110.49088 7523 ft 168 kts 139°
2026-04-21 02:43 36.96166 -110.48151 7521 ft 168 kts 140°
2026-04-21 02:44 36.95423 -110.47046 7519 ft 168 kts 111°
2026-04-21 02:44 36.95176 -110.45610 7526 ft 169 kts 100°
2026-04-21 02:44 36.95004 -110.44164 7523 ft 169 kts 100°
2026-04-21 02:44 36.94825 -110.42696 7516 ft 169 kts 99°
2026-04-21 02:45 36.94644 -110.41254 7513 ft 168 kts 100°
2026-04-21 02:45 36.94466 -110.39819 7520 ft 167 kts 100°
2026-04-21 02:45 36.94279 -110.38365 7518 ft 167 kts 99°
2026-04-21 02:45 36.94089 -110.36925 7519 ft 167 kts 100°
2026-04-21 02:46 36.93906 -110.35495 7522 ft 168 kts 99°
2026-04-21 02:46 36.93715 -110.34034 7520 ft 168 kts 100°
2026-04-21 02:46 36.93533 -110.32600 7519 ft 167 kts 100°
2026-04-21 02:46 36.93357 -110.31155 7514 ft 168 kts 100°
2026-04-21 02:47 36.93179 -110.29706 7512 ft 168 kts 100°
2026-04-21 02:47 36.92997 -110.28256 7512 ft 168 kts 100°
2026-04-21 02:47 36.92818 -110.26810 7522 ft 167 kts 100°
2026-04-21 02:47 36.92640 -110.25364 7520 ft 168 kts 99°
2026-04-21 02:48 36.92454 -110.23936 7519 ft 168 kts 100°
2026-04-21 02:48 36.92263 -110.22483 7516 ft 168 kts 100°
2026-04-21 02:48 36.92070 -110.21043 7519 ft 167 kts 100°
2026-04-21 02:48 36.91874 -110.19601 7519 ft 167 kts 99°
2026-04-21 02:49 36.91672 -110.18159 7519 ft 168 kts 99°
2026-04-21 02:49 36.91467 -110.16720 7517 ft 168 kts 100°
2026-04-21 02:49 36.91265 -110.15283 7516 ft 168 kts 101°
2026-04-21 02:49 36.91069 -110.13837 7514 ft 168 kts 100°
2026-04-21 02:50 36.90879 -110.12398 7512 ft 167 kts 99°
2026-04-21 02:50 36.90686 -110.10955 7508 ft 168 kts 99°
2026-04-21 02:50 36.90494 -110.09531 7509 ft 168 kts 100°
2026-04-21 02:50 36.90298 -110.08083 7514 ft 168 kts 100°
2026-04-21 02:51 36.90196 -110.06629 7500 ft 169 kts 80°
2026-04-21 02:51 36.90591 -110.05249 7511 ft 169 kts 68°
2026-04-21 02:51 36.91124 -110.03945 7506 ft 170 kts 53°
2026-04-21 02:51 36.91964 -110.02891 7513 ft 171 kts 45°
2026-04-21 02:52 36.92846 -110.01868 7505 ft 171 kts 45°
2026-04-21 02:52 36.93724 -110.00855 7500 ft 171 kts 45°
2026-04-21 02:52 36.94602 -109.99846 7499 ft 171 kts 45°
2026-04-21 02:52 36.95481 -109.98837 7501 ft 170 kts 45°
2026-04-21 02:53 36.96359 -109.97833 7502 ft 170 kts 44°
2026-04-21 02:53 36.97239 -109.96825 7504 ft 171 kts 45°
2026-04-21 02:53 36.98121 -109.95818 7504 ft 171 kts 45°
2026-04-21 02:53 36.99001 -109.94812 7503 ft 171 kts 45°
2026-04-21 02:54 36.99889 -109.93797 7501 ft 171 kts 45°
2026-04-21 02:54 37.00769 -109.92791 7504 ft 171 kts 44°
2026-04-21 02:54 37.01649 -109.91785 7507 ft 171 kts 45°
2026-04-21 02:54 37.02528 -109.90781 7510 ft 171 kts 45°
2026-04-21 02:55 37.03415 -109.89764 7514 ft 171 kts 45°
2026-04-21 02:55 37.04301 -109.88753 7512 ft 171 kts 44°
2026-04-21 02:55 37.05184 -109.87746 7508 ft 171 kts 44°
2026-04-21 02:55 37.06050 -109.86746 7510 ft 171 kts 45°
2026-04-21 02:56 37.06927 -109.85732 7509 ft 170 kts 44°
2026-04-21 02:56 37.08671 -109.83704 7507 ft 170 kts 45°
2026-04-21 02:56 37.09545 -109.82697 7507 ft 170 kts 45°
2026-04-21 02:57 37.10426 -109.81687 7510 ft 171 kts 45°
2026-04-21 02:57 37.11312 -109.80674 7513 ft 171 kts 44°
2026-04-21 02:57 37.12203 -109.79656 7512 ft 172 kts 45°
2026-04-21 02:57 37.13242 -109.78936 7510 ft 176 kts
2026-04-21 02:58 37.14427 -109.79327 7512 ft 182 kts 324°
2026-04-21 02:58 37.15082 -109.80644 7517 ft 185 kts 282°
2026-04-21 02:58 37.15050 -109.82249 7513 ft 185 kts 257°
2026-04-21 02:58 37.14681 -109.83800 7514 ft 184 kts 249°
2026-04-21 02:59 37.14209 -109.85300 7516 ft 185 kts 246°
2026-04-21 02:59 37.13698 -109.86783 7518 ft 184 kts 245°
2026-04-21 02:59 37.13177 -109.88254 7522 ft 184 kts 244°
2026-04-21 02:59 37.12656 -109.89705 7522 ft 183 kts 244°
2026-04-21 03:00 37.12128 -109.91174 7519 ft 184 kts 244°
2026-04-21 03:00 37.11606 -109.92623 7521 ft 184 kts 244°
2026-04-21 03:00 37.11076 -109.94093 7520 ft 184 kts 244°
2026-04-21 03:00 37.10546 -109.95562 7518 ft 184 kts 244°
2026-04-21 03:01 37.10016 -109.97028 7515 ft 185 kts 244°
2026-04-21 03:01 37.09475 -109.98524 7232 ft 196 kts 245°
2026-04-21 03:01 37.08917 -110.00069 6708 ft 195 kts 245°
2026-04-21 03:01 37.08359 -110.01613 6191 ft 195 kts 245°
2026-04-21 03:02 37.07822 -110.03098 6118 ft 176 kts 245°
2026-04-21 03:02 37.07309 -110.04516 6166 ft 181 kts 244°
2026-04-21 03:02 37.06777 -110.05983 6176 ft 187 kts 244°
2026-04-21 03:02 37.06240 -110.07467 6176 ft 190 kts 244°
2026-04-21 03:03 37.05666 -110.08978 6195 ft 190 kts 237°
2026-04-21 03:03 37.04905 -110.10309 6271 ft 186 kts 231°
2026-04-21 03:03 37.04147 -110.11669 6193 ft 191 kts 238°
2026-04-21 03:03 37.03555 -110.13158 6087 ft 193 kts 251°
2026-04-21 03:04 37.03207 -110.14765 5989 ft 189 kts 253°
2026-04-21 03:04 37.02650 -110.16254 5880 ft 187 kts 240°
2026-04-21 03:04 37.02227 -110.17780 5843 ft 183 kts 273°
2026-04-21 03:04 37.02916 -110.18881 5989 ft 161 kts 341°
2026-04-21 03:05 37.04020 -110.19224 5781 ft 165 kts 358°
2026-04-21 03:05 37.05040 -110.19833 5595 ft 167 kts 306°
2026-04-21 03:05 37.05150 -110.21145 5632 ft 147 kts 239°
2026-04-21 03:05 37.04413 -110.21601 5651 ft 111 kts 156°
2026-04-21 03:06 37.03807 -110.21124 5599 ft 105 kts 135°
2026-04-21 03:06 37.03171 -110.20581 5415 ft 115 kts 149°
2026-04-21 03:06 37.02383 -110.20304 5186 ft 115 kts 168°
2026-04-21 03:06 37.01704 -110.20209 5156 ft 76 kts 175°
2026-04-21 03:07 37.01309 -110.20161 5174 ft 29 kts 179°
2026-04-21 03:07 37.01234 -110.20191 5177 ft 0 kts 259°